Location: Hawks Ness
(60.2333°N, 1.1667°W)
Time: 11:34:56
(UTC+00:00)

Cosmos 1455 - Pass Details

Date: 22 October 2019
Orbit: 499 x 524 km, 82.5° (Epoch: 12 November)

Event Time Altitude Azimuth Distance (km) Brightness Sun altitude
Rises 06:14:01 0° 346° (NNW) 2,639 5.5 -6.5°
Reaches altitude 10° 06:16:10 10° 349° (NNW) 1,743 4.7 -6.2°
Maximum altitude 06:19:59 73° 74° (ENE) 538 2.5 -5.7°
Drops below altitude 10° 06:23:44 10° 160° (SSE) 1,716 5.3 -5.3°
Sets 06:25:51 0° 162° (SSE) 2,593 6.2 -5.0°
